Tracking 35280 objects as of 7-Sep-2026
HD Live streaming from Space Station
objects crossing your sky now

STARLINK-34038

Track STARLINK-34038 now!
10-day predictions
STARLINK-34038 is classified as:


NORAD ID: 63911
Int'l Code: 2025-095X
Launch date: May 10, 2025
Source: United States (US)
Launch site: AIR FORCE EASTERN TEST RANGE (AFETR)
Your satellite tracking list
Your tracking list is empty




NASA's NSSDC Master Catalog

Two Line Element Set (TLE):
1 63911U 25095X   26249.65423942  .00006333  00000-0  23945-3 0  9990
2 63911  42.9983 234.2503 0001392 271.2336  88.8356 15.27582133 75451
Source of the keplerian elements: AFSPC